Location: Drignac
(45.1667°N, 2.0333°E)
Time: 09:16:08
(UTC+00:00)

Cosmos 1943 Rocket - Pass Details

Date: 29 March 2020
Orbit: 812 x 844 km, 71.0° (Epoch: 23 May)

Event Time Altitude Azimuth Distance (km) Brightness Sun altitude
Rises 21:57:33 0° 317° (NW) 3,354 6.4 -34.3°
Reaches altitude 10° 22:01:00 10° 295° (WNW) 2,421 5.2 -34.7°
Maximum altitude 22:04:01 15° 262° (W) 2,089 4.5 -35.0°
Enters shadow 22:04:21 15° 258° (WSW) 2,093 4.4 -35.0°
